FENGMANIU-1 (FMN-1) (43192 NORAD) Tracking and Keplerian Element Data

This shows tracking and keplerian element data for the satellite.

Feedback or suggestion? Click here.




ElementValue
Catalog43192
NameFENGMANIU-1 (FMN-1)
Epoch Orbit20313
Epoch Day270.21805619
Epoch Year2021
RAAN46.2296
Inclination97.5026
Eccentricity0.0013033
Argument of Perigee240.2895
Mean Anonmoly240.3494
Mean Motion15.28935977
Decay Rate7.424E-05
L11 43192U 18015A 21270.21805619 .00007424 00000-0 26624-3 0 9998
L22 43192 97.5026 46.2296 0013033 240.2895 240.3494 15.28935977203130

Live tracking and technical data element details for FENGMANIU-1 (FMN-1) (NORAD 43192). FENGMANIU-1 (FMN-1) can be tracked NOW for your location showing map with azimuth and elevation plus other details from your city location.

Track the satellite on the map from your city or location and see movement details for azimuth, elevation, latitude, longitude, range, height, and movement on the map or in text.







IsCatalogInMostPopularTable: catalog: 43192, numindb: 707
Update: records affected: 1



GetName: 43192 FENGMANIU-1 (FMN-1)

Hit Count: updated at: Tue, 28 Sep 2021 16:31:57 GMT